Kindakun Rocks, British Columbia

11:13 AM PDT on September 22, 2017 (GMT -0700)
Kindakun Rocks

Weather History for CWQS - February, 2013

Change the Weather History Date:

Saturday, February 16, 2013

  Actual Average (CYZP) Record (CYZP)
Temperature  
Mean Temperature 41 °F -  
Max Temperature 43 °F 42 °F 50 °F (1997)
Min Temperature 39 °F 34 °F 30 °F (2009)
Degree Days  
Heating Degree Days 24    
Moisture  
Dew Point 38 °F    
Average Humidity 89    
Maximum Humidity 100    
Minimum Humidity 71    
Precipitation  
Precipitation 0.01 in - - ()
Sea Level Pressure  
Sea Level Pressure 30.16 in    
Wind  
Wind Speed 22 mph ()    
Max Wind Speed 30 mph    
Max Gust Speed 31 mph    
Averages and records for this station are not official NWS values.
T = Trace of Precipitation, MM = Missing Value Source: Averaged Metar Reports

Daily Weather History Graph

Daily Weather History Graph

Search for Another Location

Airport or City:

Trip Planner

Search our weather history database for the weather conditions in past years. The results will help you decide how hot, cold, wet, or windy it might be!

Date:

Astronomy

Feb. 16, 2013 Rise Set
Actual Time 8:06 AM PST 6:04 PM PST
Civil Twilight 7:30 AM PST 6:40 PM PST
Nautical Twilight 6:49 AM PST 7:21 PM PST
Astronomical Twilight 6:09 AM PST 8:01 PM PST
Moon 10:21 AM PST (2/16) 1:11 AM PST (2/16)
Length of Visible Light 11h 10m
Length of Day
9h 58m
Waxing Crescent, 40% of the Moon is Illuminated
Feb 16
Waxing Crescent
Feb 17
First Quarter
Feb 25
Full
Mar 4
Last Quarter
Mar 11
New

Hourly Weather History & Observations

Time (PST) Temp. Windchill Dew Point Humidity Pressure Visibility Wind Dir Wind Speed Gust Speed Precip Events Conditions
12:00 AM 42.3 °F 32.8 °F - N/A% 29.99 in - North 23.0 mph - N/A   Unknown
1:00 AM 42 °F - - % 30.00 in - North 27.6 mph - -  
1:00 AM 42.1 °F 31.7 °F - N/A% 30.00 in - North 27.6 mph - N/A   Unknown
2:00 AM 43.0 °F 33.5 °F - N/A% 30.02 in - North 24.2 mph - N/A   Unknown
3:00 AM 40.6 °F 29.8 °F - N/A% 30.04 in - North 27.6 mph - N/A   Unknown
4:00 AM 42 °F - - % 30.06 in - NNW 25.3 mph - -  
4:00 AM 41.5 °F 31.4 °F - N/A% 30.06 in - NNW 25.3 mph - 0.01 in   Unknown
5:00 AM 41.2 °F 30.9 °F - N/A% 30.08 in - NNW 25.3 mph - N/A   Unknown
6:00 AM 41.4 °F 30.5 °F - N/A% 30.07 in - NNW 28.8 mph - N/A   Unknown
7:00 AM 41 °F - - % 30.09 in - North 25.3 mph - -  
7:00 AM 41.4 °F 31.2 °F - N/A% 30.09 in - North 25.3 mph 31.1 mph N/A   Unknown
8:00 AM 41.2 °F 30.3 °F - N/A% 30.12 in - NNW 28.8 mph - N/A   Unknown
9:00 AM 41.0 °F 30.5 °F - N/A% 30.14 in - NNW 26.5 mph - N/A   Unknown
10:00 AM 41 °F - - % 30.16 in - NNW 24.2 mph - -  
10:00 AM 40.8 °F 30.7 °F - N/A% 30.16 in - NNW 24.2 mph 29.9 mph N/A   Unknown
11:00 AM 41.0 °F 32.2 °F - N/A% 30.18 in - North 18.4 mph - N/A   Unknown
12:00 PM 42.1 °F 33.1 °F - N/A% 30.20 in - NNW 20.7 mph 27.6 mph N/A   Unknown
1:00 PM 42 °F - - % 30.21 in - NNW 23.0 mph - -  
1:00 PM 41.7 °F 32.1 °F - N/A% 30.21 in - NNW 23.0 mph - 0.01 in   Unknown
2:00 PM 42.4 °F 32.6 °F - N/A% 30.22 in - North 25.3 mph 31.1 mph N/A   Unknown
3:00 PM 41.9 °F 31.3 °F - N/A% 30.24 in - NNW 28.8 mph - N/A   Unknown
4:00 PM 42 °F - - % 30.25 in - NNW 29.9 mph - -  
4:00 PM 41.5 °F 30.6 °F - N/A% 30.25 in - NNW 29.9 mph - N/A   Unknown
5:00 PM 41.2 °F 30.9 °F - N/A% 30.26 in - NNW 25.3 mph - N/A   Unknown
6:00 PM 41.5 °F 32.1 °F - N/A% 30.26 in - NNW 21.9 mph - N/A   Unknown
7:00 PM 41 °F - 41 °F 100% 30.26 in - NNW 19.6 mph - -  
7:00 PM 41.0 °F 31.9 °F 41.0 °F 100% 30.26 in - NNW 19.6 mph - N/A   Unknown
8:00 PM 40.8 °F 32.9 °F 40.3 °F 98% 30.27 in - NNW 15.0 mph - N/A   Unknown
9:00 PM 39.7 °F 30.9 °F 39.6 °F 99% 30.27 in - NW 17.3 mph - N/A   Unknown
10:00 PM 41 °F - 35 °F 73% 30.27 in - NNW 17.3 mph - -  
10:00 PM 41.0 °F 32.5 °F 35.2 °F 80% 30.27 in - NNW 17.3 mph - N/A   Unknown
11:00 PM 40.5 °F 33.2 °F 31.6 °F 71% 30.27 in - NW 12.7 mph - N/A   Unknown